N6HL KRNT-KTRK

Flight info

Callsign N6HL
Flight time 1h 41m
Altitude 29000
Route TAOMA J5 SUMMA Q9 SYNKR WNDEL
Aircraft SF50/L-SDGRWY/L

Departure

Time 2026-05-07 17:15
Airport Renton Municipal Airport (KRNT)

Arrival

Time 2026-05-07 18:56
Airport Truckee Tahoe Airport (KTRK)
Time Latitude Longitude Altitude Speed Heading
2026-05-07 16:57 47.48577 -122.21094 32 ft 0 kts 34°
2026-05-07 17:07 47.48577 -122.21093 32 ft 1 kts 39°
2026-05-07 17:07 47.48562 -122.21108 32 ft 5 kts 264°
2026-05-07 17:07 47.48564 -122.21167 32 ft 7 kts 265°
2026-05-07 17:07 47.48570 -122.21237 31 ft 7 kts 278°
2026-05-07 17:08 47.48575 -122.21301 31 ft 7 kts 301°
2026-05-07 17:08 47.48618 -122.21345 30 ft 8 kts 305°
2026-05-07 17:08 47.48620 -122.21398 29 ft 1 kts 242°
2026-05-07 17:08 47.48610 -122.21441 29 ft 9 kts 263°
2026-05-07 17:09 47.48606 -122.21554 28 ft 10 kts 291°
2026-05-07 17:09 47.48645 -122.21591 28 ft 6 kts 338°
2026-05-07 17:10 47.48680 -122.21603 29 ft 5 kts 353°
2026-05-07 17:10 47.48716 -122.21611 29 ft 7 kts 351°
2026-05-07 17:10 47.48774 -122.21619 30 ft 10 kts 354°
2026-05-07 17:10 47.48859 -122.21632 30 ft 15 kts 352°
2026-05-07 17:11 47.48960 -122.21644 31 ft 12 kts 354°
2026-05-07 17:11 47.49031 -122.21655 32 ft 9 kts 356°
2026-05-07 17:11 47.49093 -122.21665 31 ft 10 kts 354°
2026-05-07 17:11 47.49167 -122.21675 28 ft 12 kts 354°
2026-05-07 17:12 47.49252 -122.21688 26 ft 13 kts 354°
2026-05-07 17:12 47.49342 -122.21702 27 ft 15 kts 355°
2026-05-07 17:12 47.49455 -122.21719 21 ft 19 kts 355°
2026-05-07 17:12 47.49596 -122.21738 18 ft 21 kts 353°
2026-05-07 17:13 47.49696 -122.21757 19 ft 22 kts 352°
2026-05-07 17:13 47.49854 -122.21782 18 ft 23 kts 355°
2026-05-07 17:13 47.49981 -122.21792 20 ft 13 kts 20°
2026-05-07 17:13 47.50018 -122.21713 22 ft 8 kts 73°
2026-05-07 17:14 47.50001 -122.21678 22 ft 0 kts 173°
2026-05-07 17:14 47.49985 -122.21675 21 ft 19 kts 174°
2026-05-07 17:14 47.49610 -122.21619 19 ft 86 kts 173°
2026-05-07 17:14 47.48920 -122.21505 307 ft 114 kts 174°
2026-05-07 17:15 47.48049 -122.21339 806 ft 137 kts 173°
2026-05-07 17:15 47.47053 -122.21126 1473 ft 153 kts 172°
2026-05-07 17:15 47.45968 -122.20865 2188 ft 163 kts 171°
2026-05-07 17:15 47.44817 -122.20597 2952 ft 171 kts 171°
2026-05-07 17:16 47.43637 -122.20347 3844 ft 163 kts 171°
2026-05-07 17:16 47.42469 -122.20162 4330 ft 178 kts 175°
2026-05-07 17:16 47.41226 -122.19973 4980 ft 181 kts 173°
2026-05-07 17:16 47.39963 -122.19726 5573 ft 184 kts 172°
2026-05-07 17:17 47.38690 -122.19465 6203 ft 186 kts 173°
2026-05-07 17:17 47.37398 -122.19230 6765 ft 188 kts 174°
2026-05-07 17:17 47.36096 -122.18982 7297 ft 189 kts 174°
2026-05-07 17:17 47.34784 -122.18728 7848 ft 191 kts 174°
2026-05-07 17:18 47.33462 -122.18476 8407 ft 192 kts 174°
2026-05-07 17:18 47.32150 -122.18225 8975 ft 193 kts 174°
2026-05-07 17:18 47.30796 -122.17966 9536 ft 195 kts 174°
2026-05-07 17:18 47.29460 -122.17708 10038 ft 197 kts 174°
2026-05-07 17:19 47.28094 -122.17447 10510 ft 199 kts 174°
2026-05-07 17:19 47.26716 -122.17184 10981 ft 200 kts 174°
2026-05-07 17:19 47.25327 -122.16919 11433 ft 202 kts 174°
2026-05-07 17:19 47.23926 -122.16649 11880 ft 204 kts 174°
2026-05-07 17:20 47.22510 -122.16377 12324 ft 206 kts 174°
2026-05-07 17:20 47.21083 -122.16105 12762 ft 208 kts 174°
2026-05-07 17:20 47.19644 -122.15829 13193 ft 210 kts 174°
2026-05-07 17:20 47.18190 -122.15549 13631 ft 211 kts 174°
2026-05-07 17:21 47.16724 -122.15272 14054 ft 213 kts 175°
2026-05-07 17:21 47.15246 -122.14991 14424 ft 215 kts 174°
2026-05-07 17:21 47.13758 -122.14707 14799 ft 216 kts 174°
2026-05-07 17:21 47.12261 -122.14422 15167 ft 218 kts 174°
2026-05-07 17:22 47.10753 -122.14136 15535 ft 219 kts 175°
2026-05-07 17:22 47.09254 -122.13852 15889 ft 221 kts 174°
2026-05-07 17:22 47.07724 -122.13560 16248 ft 222 kts 175°
2026-05-07 17:22 47.06182 -122.13265 16607 ft 224 kts 174°
2026-05-07 17:23 47.04631 -122.12968 16965 ft 225 kts 174°
2026-05-07 17:23 47.03069 -122.12673 17306 ft 227 kts 174°
2026-05-07 17:23 47.01499 -122.12374 17656 ft 228 kts 174°
2026-05-07 17:23 46.99916 -122.12072 17996 ft 230 kts 174°
2026-05-07 17:24 46.98325 -122.11774 18332 ft 231 kts 174°
2026-05-07 17:24 46.96721 -122.11470 18633 ft 233 kts 174°
2026-05-07 17:24 46.95112 -122.11165 18912 ft 234 kts 174°
2026-05-07 17:24 46.93489 -122.10859 19192 ft 235 kts 174°
2026-05-07 17:25 46.91862 -122.10521 19459 ft 237 kts 169°
2026-05-07 17:25 46.90259 -122.09895 19703 ft 239 kts 166°
2026-05-07 17:25 46.88676 -122.09258 19978 ft 240 kts 166°
2026-05-07 17:25 46.87057 -122.08621 20212 ft 242 kts 166°
2026-05-07 17:26 46.85421 -122.07982 20471 ft 244 kts 167°
2026-05-07 17:26 46.83774 -122.07352 20731 ft 245 kts 167°
2026-05-07 17:26 46.82123 -122.06706 20995 ft 246 kts 166°
2026-05-07 17:26 46.80464 -122.06058 21275 ft 247 kts 166°
2026-05-07 17:27 46.78808 -122.05412 21557 ft 246 kts 166°
2026-05-07 17:27 46.77153 -122.04761 21849 ft 246 kts 166°
2026-05-07 17:27 46.75492 -122.04120 22127 ft 247 kts 167°
2026-05-07 17:27 46.73835 -122.03484 22407 ft 247 kts 167°
2026-05-07 17:28 46.72175 -122.02838 22702 ft 247 kts 167°
2026-05-07 17:28 46.70516 -122.02195 23015 ft 246 kts 167°
2026-05-07 17:28 46.68857 -122.01547 23300 ft 247 kts 167°
2026-05-07 17:28 46.67198 -122.00901 23600 ft 247 kts 166°
2026-05-07 17:29 46.65535 -122.00264 23827 ft 247 kts 168°
2026-05-07 17:29 46.63863 -121.99617 24067 ft 248 kts 168°
2026-05-07 17:29 46.62194 -121.98970 24318 ft 248 kts 168°
2026-05-07 17:29 46.60527 -121.98486 24539 ft 247 kts 174°
2026-05-07 17:30 46.58830 -121.98091 24774 ft 247 kts 174°
2026-05-07 17:30 46.57140 -121.97676 25028 ft 247 kts 174°
2026-05-07 17:30 46.55448 -121.97252 25301 ft 246 kts 175°
2026-05-07 17:30 46.53757 -121.96855 25539 ft 247 kts 175°
2026-05-07 17:31 46.52062 -121.96454 25798 ft 247 kts 175°
2026-05-07 17:31 46.50369 -121.96039 26065 ft 246 kts 175°
2026-05-07 17:31 46.48676 -121.95629 26320 ft 246 kts 175°
2026-05-07 17:31 46.46981 -121.95219 26579 ft 246 kts 176°
2026-05-07 17:32 46.45312 -121.94815 26848 ft 246 kts 176°
2026-05-07 17:32 46.43619 -121.94404 27108 ft 246 kts 176°
2026-05-07 17:32 46.41928 -121.93994 27400 ft 246 kts 176°
2026-05-07 17:32 46.40239 -121.93587 27676 ft 246 kts 176°
2026-05-07 17:33 46.38554 -121.93176 27947 ft 246 kts 177°
2026-05-07 17:33 46.36867 -121.92769 28235 ft 245 kts 177°
2026-05-07 17:33 46.35182 -121.92363 28521 ft 245 kts 178°
2026-05-07 17:33 46.33499 -121.91956 28812 ft 246 kts 178°
2026-05-07 17:34 46.31805 -121.91548 29034 ft 247 kts 178°
2026-05-07 17:34 46.30098 -121.91132 29149 ft 254 kts 178°
2026-05-07 17:34 46.28319 -121.90719 29163 ft 264 kts 178°
2026-05-07 17:34 46.26473 -121.90284 29159 ft 273 kts 177°
2026-05-07 17:35 46.24575 -121.89828 29158 ft 280 kts 177°
2026-05-07 17:35 46.22628 -121.89353 29139 ft 287 kts 176°
2026-05-07 17:35 46.20639 -121.88867 29126 ft 294 kts 175°
2026-05-07 17:35 46.18610 -121.88368 29159 ft 297 kts 177°
2026-05-07 17:36 46.14459 -121.87409 29160 ft 309 kts 176°
2026-05-07 17:36 46.10154 -121.86365 29156 ft 318 kts 176°
2026-05-07 17:37 46.05771 -121.85321 29155 ft 324 kts 176°
2026-05-07 17:37 46.01284 -121.84250 29145 ft 329 kts 176°
2026-05-07 17:38 45.96731 -121.83168 29149 ft 333 kts 176°
2026-05-07 17:38 45.92132 -121.82077 29149 ft 336 kts 176°
2026-05-07 17:39 45.87506 -121.80981 29143 ft 337 kts 176°
2026-05-07 17:39 45.82872 -121.79880 29143 ft 336 kts 176°
2026-05-07 17:40 45.78291 -121.78798 29138 ft 335 kts 175°
2026-05-07 17:40 45.73686 -121.77711 29146 ft 335 kts 176°
2026-05-07 17:41 45.69086 -121.76626 29131 ft 334 kts 175°
2026-05-07 17:41 45.64496 -121.75543 29137 ft 333 kts 175°
2026-05-07 17:42 45.59922 -121.74475 29138 ft 333 kts 175°
2026-05-07 17:42 45.55336 -121.73399 29133 ft 334 kts 175°
2026-05-07 17:43 45.50735 -121.72324 29127 ft 336 kts 175°
2026-05-07 17:43 45.46111 -121.71240 29127 ft 336 kts 175°
2026-05-07 17:44 45.41543 -121.70174 29122 ft 334 kts 175°
2026-05-07 17:44 45.36961 -121.69105 29124 ft 334 kts 175°
2026-05-07 17:45 45.32368 -121.68037 29114 ft 335 kts 175°
2026-05-07 17:45 45.27755 -121.66971 29107 ft 337 kts 175°
2026-05-07 17:46 45.23162 -121.65903 29120 ft 331 kts 175°
2026-05-07 17:46 45.18610 -121.64854 29103 ft 332 kts 175°
2026-05-07 17:47 45.14066 -121.63802 29105 ft 333 kts 174°
2026-05-07 17:47 45.09478 -121.62744 29093 ft 334 kts 174°
2026-05-07 17:48 45.04899 -121.61688 29107 ft 332 kts 175°
2026-05-07 17:48 45.00353 -121.60641 29092 ft 330 kts 175°
2026-05-07 17:49 44.95814 -121.59602 29094 ft 331 kts 175°
2026-05-07 17:49 44.91248 -121.58557 29094 ft 333 kts 174°
2026-05-07 17:50 44.86658 -121.57507 29093 ft 335 kts 174°
2026-05-07 17:50 44.82056 -121.56456 29086 ft 334 kts 174°
2026-05-07 17:51 44.77475 -121.55409 29077 ft 333 kts 174°
2026-05-07 17:51 44.72909 -121.54371 29081 ft 331 kts 174°
2026-05-07 17:52 44.68393 -121.53341 29072 ft 331 kts 174°
2026-05-07 17:52 44.63820 -121.52306 29073 ft 334 kts 174°
2026-05-07 17:53 44.59226 -121.51266 29068 ft 334 kts 174°
2026-05-07 17:53 44.54640 -121.50228 29066 ft 333 kts 174°
2026-05-07 17:54 44.50081 -121.49196 29061 ft 331 kts 175°
2026-05-07 17:54 44.45527 -121.48172 29058 ft 331 kts 174°
2026-05-07 17:55 44.40985 -121.47147 29057 ft 331 kts 175°
2026-05-07 17:55 44.36458 -121.46129 29060 ft 331 kts 175°
2026-05-07 17:56 44.31926 -121.45111 29057 ft 329 kts 175°
2026-05-07 17:56 44.27413 -121.44101 29089 ft 328 kts 175°
2026-05-07 17:57 44.23640 -121.43257 29092 ft 328 kts 175°
2026-05-07 17:57 44.18376 -121.42082 29099 ft 331 kts 175°
2026-05-07 17:58 44.13812 -121.41064 29105 ft 332 kts 175°
2026-05-07 17:58 44.09259 -121.40048 29107 ft 331 kts 175°
2026-05-07 17:59 44.04709 -121.39036 29107 ft 331 kts 175°
2026-05-07 17:59 44.00194 -121.38032 29103 ft 330 kts 175°
2026-05-07 18:00 43.95658 -121.37027 29101 ft 330 kts 175°
2026-05-07 18:00 43.91143 -121.36028 29092 ft 328 kts 175°
2026-05-07 18:01 43.86606 -121.35028 29088 ft 331 kts 175°
2026-05-07 18:01 43.82042 -121.34018 29077 ft 333 kts 175°
2026-05-07 18:02 43.75964 -121.32664 29068 ft 331 kts 175°
2026-05-07 18:03 43.71430 -121.31660 29059 ft 329 kts 175°
2026-05-07 18:03 43.66893 -121.30655 29060 ft 332 kts 175°
2026-05-07 18:04 43.62317 -121.29646 29067 ft 333 kts 175°
2026-05-07 18:04 43.57764 -121.28642 29068 ft 333 kts 175°
2026-05-07 18:05 43.53204 -121.27637 29065 ft 331 kts 175°
2026-05-07 18:05 43.48663 -121.26639 29064 ft 329 kts 175°
2026-05-07 18:06 43.44152 -121.25646 29062 ft 327 kts 175°
2026-05-07 18:06 43.39636 -121.24657 29062 ft 329 kts 175°
2026-05-07 18:07 43.35119 -121.23667 29064 ft 331 kts 175°
2026-05-07 18:07 43.30559 -121.22671 29067 ft 332 kts 175°
2026-05-07 18:08 43.25986 -121.21673 29067 ft 333 kts 175°
2026-05-07 18:08 43.21417 -121.20678 29066 ft 331 kts 175°
2026-05-07 18:09 43.16874 -121.19688 29067 ft 330 kts 175°
2026-05-07 18:09 43.12349 -121.18707 29058 ft 329 kts 175°
2026-05-07 18:10 43.07861 -121.17732 29073 ft 329 kts 175°
2026-05-07 18:10 43.03337 -121.16751 29074 ft 329 kts 175°
2026-05-07 18:11 42.98808 -121.15771 29069 ft 330 kts 175°
2026-05-07 18:11 42.94278 -121.14792 29079 ft 329 kts 175°
2026-05-07 18:12 42.89809 -121.13394 29078 ft 330 kts 169°
2026-05-07 18:12 42.85359 -121.11877 29076 ft 330 kts 170°
2026-05-07 18:13 42.80899 -121.10368 29087 ft 330 kts 169°
2026-05-07 18:13 42.76469 -121.08866 29091 ft 330 kts 170°
2026-05-07 18:14 42.72005 -121.07356 29092 ft 330 kts 169°
2026-05-07 18:14 42.67541 -121.05848 29096 ft 331 kts 170°
2026-05-07 18:15 42.63072 -121.04342 29100 ft 330 kts 169°
2026-05-07 18:15 42.58641 -121.02849 29097 ft 327 kts 169°
2026-05-07 18:16 42.54240 -121.01373 29100 ft 326 kts 169°
2026-05-07 18:16 42.49809 -120.99884 29101 ft 329 kts 169°
2026-05-07 18:17 42.45355 -120.98393 29100 ft 330 kts 169°
2026-05-07 18:17 42.40903 -120.96901 29099 ft 328 kts 169°
2026-05-07 18:18 42.36511 -120.95433 29088 ft 326 kts 169°
2026-05-07 18:18 42.32108 -120.93961 29101 ft 326 kts 169°
2026-05-07 18:19 42.27689 -120.92492 29103 ft 328 kts 169°
2026-05-07 18:19 42.23244 -120.91013 29100 ft 330 kts 169°
2026-05-07 18:20 42.18818 -120.89542 29107 ft 329 kts 169°
2026-05-07 18:20 42.14380 -120.88072 29103 ft 328 kts 169°
2026-05-07 18:21 42.09963 -120.86605 29102 ft 326 kts 169°
2026-05-07 18:21 42.05562 -120.85149 29097 ft 325 kts 169°
2026-05-07 18:22 42.01171 -120.83696 29095 ft 325 kts 169°
2026-05-07 18:22 41.96793 -120.82255 29094 ft 327 kts 169°
2026-05-07 18:23 41.92358 -120.80794 29101 ft 329 kts 169°
2026-05-07 18:23 41.87890 -120.79325 29092 ft 330 kts 169°
2026-05-07 18:24 41.83446 -120.77864 29089 ft 328 kts 169°
2026-05-07 18:24 41.79031 -120.76414 29084 ft 326 kts 169°
2026-05-07 18:25 41.74604 -120.74965 29085 ft 328 kts 169°
2026-05-07 18:25 41.70186 -120.73521 29081 ft 329 kts 169°
2026-05-07 18:26 41.65751 -120.72069 29077 ft 327 kts 169°
2026-05-07 18:26 41.61330 -120.70629 29075 ft 326 kts 168°
2026-05-07 18:27 41.56929 -120.69196 29074 ft 326 kts 169°
2026-05-07 18:27 41.52510 -120.67760 29075 ft 327 kts 168°
2026-05-07 18:28 41.48074 -120.66320 29176 ft 329 kts 169°
2026-05-07 18:28 41.43622 -120.64874 29176 ft 329 kts 168°
2026-05-07 18:29 41.39177 -120.63434 29169 ft 328 kts 168°
2026-05-07 18:29 41.34742 -120.61997 29155 ft 328 kts 168°
2026-05-07 18:30 41.30314 -120.60569 29141 ft 327 kts 168°
2026-05-07 18:30 41.25923 -120.59153 29129 ft 326 kts 168°
2026-05-07 18:31 41.21522 -120.57736 29116 ft 325 kts 168°
2026-05-07 18:31 41.17117 -120.56321 29095 ft 326 kts 168°
2026-05-07 18:32 41.12705 -120.54901 29077 ft 326 kts 168°
2026-05-07 18:32 41.08279 -120.53483 29076 ft 328 kts 168°
2026-05-07 18:33 41.03838 -120.52059 29079 ft 329 kts 168°
2026-05-07 18:33 40.99394 -120.50638 29075 ft 327 kts 168°
2026-05-07 18:34 40.94978 -120.49228 29073 ft 326 kts 168°
2026-05-07 18:34 40.90572 -120.47824 29068 ft 325 kts 168°
2026-05-07 18:35 40.86169 -120.46421 29069 ft 325 kts 168°
2026-05-07 18:35 40.81799 -120.45031 29062 ft 326 kts 168°
2026-05-07 18:36 40.77357 -120.43618 29071 ft 326 kts 168°
2026-05-07 18:36 40.72944 -120.42218 29060 ft 326 kts 168°
2026-05-07 18:37 40.68565 -120.40630 29067 ft 327 kts 165°
2026-05-07 18:37 40.64212 -120.39053 29099 ft 326 kts 166°
2026-05-07 18:38 40.59825 -120.37479 29109 ft 327 kts 166°
2026-05-07 18:38 40.55442 -120.35897 29118 ft 327 kts 166°
2026-05-07 18:39 40.51059 -120.34324 29128 ft 327 kts 166°
2026-05-07 18:39 40.46672 -120.32747 29098 ft 328 kts 166°
2026-05-07 18:39 40.44459 -120.31955 28744 ft 328 kts 166°
2026-05-07 18:40 40.42286 -120.31173 28312 ft 321 kts 166°
2026-05-07 18:40 40.40150 -120.30407 27897 ft 316 kts 166°
2026-05-07 18:40 40.38032 -120.29649 27480 ft 316 kts 166°
2026-05-07 18:40 40.35896 -120.28886 27060 ft 320 kts 166°
2026-05-07 18:41 40.33734 -120.28113 26629 ft 323 kts 166°
2026-05-07 18:41 40.31563 -120.27337 26198 ft 324 kts 166°
2026-05-07 18:41 40.29394 -120.26563 25765 ft 323 kts 166°
2026-05-07 18:41 40.27231 -120.25791 25333 ft 322 kts 166°
2026-05-07 18:42 40.25070 -120.25021 24901 ft 321 kts 166°
2026-05-07 18:42 40.22906 -120.24249 24470 ft 324 kts 166°
2026-05-07 18:42 40.20723 -120.23473 24033 ft 326 kts 167°
2026-05-07 18:42 40.18529 -120.22694 23583 ft 328 kts 167°
2026-05-07 18:43 40.16333 -120.21912 23104 ft 326 kts 167°
2026-05-07 18:43 40.14152 -120.21136 22666 ft 324 kts 167°
2026-05-07 18:43 40.11968 -120.20361 22236 ft 326 kts 167°
2026-05-07 18:43 40.09770 -120.19582 21805 ft 328 kts 167°
2026-05-07 18:44 40.07586 -120.18806 21375 ft 330 kts 167°
2026-05-07 18:44 40.05338 -120.18010 20935 ft 331 kts 167°
2026-05-07 18:44 40.03141 -120.17232 20506 ft 331 kts 167°
2026-05-07 18:44 40.00912 -120.16439 20059 ft 333 kts 168°
2026-05-07 18:45 39.98675 -120.15648 19621 ft 333 kts 167°
2026-05-07 18:45 39.96440 -120.14861 19185 ft 332 kts 167°
2026-05-07 18:45 39.94213 -120.14074 18746 ft 332 kts 167°
2026-05-07 18:45 39.91987 -120.13289 18304 ft 330 kts 167°
2026-05-07 18:46 39.89777 -120.12510 17836 ft 329 kts 168°
2026-05-07 18:46 39.87548 -120.11726 17176 ft 333 kts 167°
2026-05-07 18:46 39.85338 -120.10940 16693 ft 324 kts 167°
2026-05-07 18:46 39.83162 -120.10164 16254 ft 327 kts 167°
2026-05-07 18:47 39.80960 -120.09392 15809 ft 327 kts 168°
2026-05-07 18:47 39.78788 -120.08638 15398 ft 320 kts 168°
2026-05-07 18:47 39.76642 -120.07890 14978 ft 319 kts 168°
2026-05-07 18:47 39.74505 -120.07136 14558 ft 318 kts 168°
2026-05-07 18:48 39.72376 -120.06386 14139 ft 315 kts 168°
2026-05-07 18:48 39.70265 -120.05646 13705 ft 313 kts 169°
2026-05-07 18:48 39.68171 -120.04913 13279 ft 310 kts 169°
2026-05-07 18:48 39.66133 -120.04198 12878 ft 305 kts 169°
2026-05-07 18:49 39.64086 -120.03485 12476 ft 303 kts 169°
2026-05-07 18:49 39.62046 -120.02986 12074 ft 296 kts 180°
2026-05-07 18:49 39.60013 -120.03103 11796 ft 290 kts 192°
2026-05-07 18:49 39.58077 -120.03707 11788 ft 282 kts 200°
2026-05-07 18:50 39.56264 -120.04362 11605 ft 262 kts 200°
2026-05-07 18:50 39.54545 -120.04948 11068 ft 248 kts 199°
2026-05-07 18:50 39.52908 -120.05508 10553 ft 240 kts 200°
2026-05-07 18:50 39.51327 -120.06104 10056 ft 235 kts 201°
2026-05-07 18:51 39.49748 -120.06633 9449 ft 232 kts 196°
2026-05-07 18:51 39.48730 -120.06884 9296 ft 213 kts 195°
2026-05-07 18:51 39.47406 -120.07310 9234 ft 185 kts 204°
2026-05-07 18:51 39.46284 -120.07821 8971 ft 159 kts 203°
2026-05-07 18:52 39.45260 -120.08182 8732 ft 149 kts 197°
2026-05-07 18:52 39.43911 -120.08619 8449 ft 152 kts 199°
2026-05-07 18:52 39.43260 -120.08857 8288 ft 137 kts 200°
2026-05-07 18:52 39.42390 -120.09183 8078 ft 124 kts 202°
2026-05-07 18:53 39.41587 -120.09522 7927 ft 120 kts 203°
2026-05-07 18:53 39.40788 -120.09832 7708 ft 122 kts 200°
2026-05-07 18:53 39.39984 -120.10111 7552 ft 117 kts 200°
2026-05-07 18:53 39.39189 -120.10362 7391 ft 116 kts 195°
2026-05-07 18:54 39.38431 -120.10594 7203 ft 102 kts 197°
2026-05-07 18:54 39.37783 -120.10854 7107 ft 100 kts 204°
2026-05-07 18:54 39.37096 -120.11116 7129 ft 102 kts 195°
2026-05-07 18:54 39.36413 -120.11336 6867 ft 102 kts 195°
2026-05-07 18:55 39.35732 -120.11566 6628 ft 100 kts 199°
2026-05-07 18:55 39.35047 -120.11822 6462 ft 112 kts 199°
2026-05-07 18:55 39.34331 -120.12058 6384 ft 101 kts 198°
2026-05-07 18:55 39.33685 -120.12327 6110 ft 97 kts 214°
2026-05-07 18:56 39.33096 -120.12752 6022 ft 95 kts 217°
2026-05-07 18:56 39.32551 -120.13185 5908 ft 88 kts 215°
2026-05-07 18:56 39.32107 -120.13513 5903 ft 60 kts 210°
2026-05-07 18:56 39.31816 -120.13730 5902 ft 27 kts 205°
2026-05-07 18:57 39.31752 -120.13845 5901 ft 12 kts 221°
2026-05-07 18:57 39.31736 -120.13922 5901 ft 7 kts 279°
2026-05-07 18:57 39.31730 -120.13973 5901 ft 9 kts 261°
2026-05-07 18:57 39.31746 -120.14019 5901 ft 3 kts 343°
2026-05-07 18:58 39.31754 -120.14018 5901 ft 0 kts 33°